Location: Berkeley
(37.8716°N, 122.2727°W)
Time: 15:22:05
(UTC-07:00)

N. Korean satellite - Visible Passes

Search period start: 18 October 2017 00:00
Search period end: 28 October 2017 00:00
Orbit: 459 x 517 km, 97.2° (Epoch: 18 October)

Date Brightness Start Highest point End Pass type
(mag) Time Alt. Az. Time Alt. Az. Time Alt. Az.
18 Oct 7.6 19:32:58 10° S 19:36:24 48° W 19:39:48 10° NNW visible
19 Oct 6.4 19:09:33 10° SSE 19:13:05 76° ENE 19:16:34 10° N visible
20 Oct 7.1 18:46:36 10° SE 18:49:48 34° ENE 18:53:00 10° N visible
20 Oct 10.1 20:22:17 10° WSW 20:23:27 11° W 20:24:37 10° WNW visible
21 Oct 9.1 19:57:09 10° SSW 19:59:58 22° W 20:02:46 10° NW visible
22 Oct 7.6 19:33:10 10° S 19:36:33 47° W 19:39:56 10° NNW visible
23 Oct 6.4 19:09:43 10° SSE 19:13:13 77° ENE 19:16:41 10° N visible
24 Oct 7.1 18:46:45 10° SE 18:49:56 34° ENE 18:53:07 10° N visible
24 Oct 10.1 20:22:34 10° WSW 20:23:35 11° W 20:24:35 10° WNW visible
25 Oct 9.1 19:57:19 10° SSW 20:00:05 22° W 20:02:51 10° NW visible
26 Oct 7.6 19:33:18 10° S 19:36:40 46° W 19:40:00 10° NNW visible
27 Oct 6.3 19:09:50 10° SSE 19:13:18 78° ENE 19:16:46 10° N visible
